KUIPER-00105

导读

KUIPER-00105是美国发射的柯伊伯项目卫星,该项目由亚马逊主导,旨在构建近地轨道卫星星座,为全球提供高速互联网覆盖。该卫星于2025年8月11日发射升空,入轨后将参与星座组网测试,验证卫星通信相关技术性能,推进全球宽带互联网络部署进程,补充地面网络覆盖盲区。

基本信息
目录编号:
65143
目录名称:
KUIPER-00105
国际标识:
2025-171M
轨道中心:
EARTH
卫星名称:
KUIPER-00105
卫星全名:
KUIPER-00105
卫星状态:
在轨 (已飞行350 天)
发射日期:
2025-08-11 UTC
国别 :
美国 (US)
星等 :
--
轨道信息
数据来源 国际轨道数据 AOE轨道数据
星历时间 2026-07-27T10:50:31+0800
18小时前
查看轨道信息
2026-07-25T06:00:00+0800
2天前
查看轨道信息
半长轴 7007.675km 7007.643km
偏心率 0.000036 0.0000531
轨道倾角 51.900° 51.901°
近地点辐角 85.332° 115.425°
升交点赤经 269.103° 278.842°
平近点角 274.768° 27.287°
近地点 629.285km 629.133km
远地点 629.791km 629.879km
周期 97.302分钟 97.301分钟
每日圈数 14.799324 14.799425
详细信息
使用方式:
暂无
2D轨道图
3D轨道图
轨道高度分析图
轨道倾角分析图
轨道综合分析图
查看轨道综合分析图